Погода в Белоозерском

Россия / Московская область     55°27′34″N   38°26′20″E
темп.,
°C
ветер,
м/с
пор.,
м/с
влажн.,
%
обл.,
%
осадки,
мм/ч
давл.,
гПа
погр.,
м
11 мая, вт
вт1100:00+5св311850 0.0 1027197
03:00+5ссв310880 0.0 1027207
06:00+7св413840 0.0 1027420
09:00+12св69600 0.0 1027607
12:00+17св68544 0.0 1026809
15:00+20всв57554 0.0 10251082
18:00+19св48665 0.0 1025613
21:00+13в399499 0.6 1026205
12 мая, ср
ср1200:00+12юв349674 0.1 102785
03:00+11вюв229251 0.1 102740
06:00+11вюв129019 0.0 102776
09:00+14св2374100 0.0 1026424
12:00+18вюв2672100 0.4 1023954
15:00+20в6127199 2.6 10212016
18:00+15вюв51287100 1.1 1020843
21:00+13ююв5119370 8.9 1020591
13 мая, чт
чт1300:00+9юв269830 0.0 1022178
03:00+10вюв299877 0.0 1021372
06:00+11вюв379733 0.0 1021340
09:00+15вюв358099 0.0 1019649
12:00+13юз2499100 9.1 1017283
15:00+13в228884 19.2 1017212
18:00+14юв238291 0.0 1017421
21:00+11юв23976 0.0 101753
14 мая, пт
пт1400:00+10юв249611 0.0 101773
03:00+10ююв259787 0.0 101887
06:00+11юв2496100 0.0 1018136
09:00+15юв3683100 0.0 1018370
12:00+18юв387535 0.0 1017741
15:00+21юв5970100 1.1 10161256
18:00+20юв5127865 0.7 1014831
21:00+17ююв7159291 4.8 1014668
15 мая, сб
сб1500:00+15ююз4996100 7.1 1013364
03:00+14вюв3596100 8.6 101187
06:00+15ююз2993100 0.1 1012373
09:00+16в4895100 2.3 1009234
12:00+17юв4992100 3.4 1009372
15:00+19ю611862 4.9 1008822
18:00+19ююз6118296 2.1 1009597
21:00+15ююз3795100 2.8 1009146